Orlando International, FL

5:28 AM EDT on September 24, 2017 (GMT -0400)
Orlando International

Weather History for KMCO - May, 2013

Change the Weather History Date:

Monday, May 13, 2013

  Actual Average Record
Temperature  
Mean Temperature 74 °F 77 °F  
Max Temperature 84 °F 88 °F 97 °F (1922)
Min Temperature 64 °F 66 °F 53 °F (1952)
Degree Days  
Heating Degree Days 0 0  
Month to date heating degree days 0 0  
Since 1 July heating degree days 461 570  
Cooling Degree Days 9 12  
Month to date cooling degree days 116 136  
Year to date cooling degree days 652 557  
Growing Degree Days 26 (Base 50)    
Moisture  
Dew Point 59 °F    
Average Humidity 62    
Maximum Humidity 90    
Minimum Humidity 34    
Precipitation  
Precipitation 0.00 in 0.09 in 1.29 in (1959)
Month to date precipitation 2.06 0.99  
Year to date precipitation 7.88 12.17  
Sea Level Pressure  
Sea Level Pressure 30.08 in    
Wind  
Wind Speed 9 mph (NNW)    
Max Wind Speed 17 mph    
Max Gust Speed 23 mph    
Visibility 10 miles    
Events      
T = Trace of Precipitation, MM = Missing Value Source: NWS Daily Summary

Daily Weather History Graph

Daily Weather History Graph

Search for Another Location

Airport or City:

Trip Planner

Search our weather history database for the weather conditions in past years. The results will help you decide how hot, cold, wet, or windy it might be!

Date:

Astronomy

May. 13, 2013 Rise Set
Actual Time 6:35 AM EDT 8:07 PM EDT
Civil Twilight 6:10 AM EDT 8:33 PM EDT
Nautical Twilight 5:39 AM EDT 9:03 PM EDT
Astronomical Twilight 5:07 AM EDT 9:36 PM EDT
Moon 9:22 AM EDT (5/13) 11:15 PM EDT (5/13)
Length of Visible Light 14h 23m
Length of Day
13h 31m
Waxing Crescent, 12% of the Moon is Illuminated
May 13
Waxing Crescent
May 18
First Quarter
May 25
Full
May 31
Last Quarter
Jun 8
New

Hourly Weather History & Observations

Time (EDT) Temp. Heat Index Dew Point Humidity Pressure Visibility Wind Dir Wind Speed Gust Speed Precip Events Conditions
12:53 AM 73.0 °F - 64.9 °F 76% 30.04 in 10.0 mi West 4.6 mph - N/A   Scattered Clouds
1:53 AM 72.0 °F - 64.9 °F 78% 30.02 in 10.0 mi West 5.8 mph - N/A   Scattered Clouds
2:53 AM 71.1 °F - 66.0 °F 84% 30.01 in 10.0 mi WNW 5.8 mph - N/A   Partly Cloudy
3:53 AM 71.1 °F - 66.9 °F 87% 30.02 in 10.0 mi WNW 6.9 mph - N/A   Mostly Cloudy
4:53 AM 71.1 °F - 66.9 °F 87% 30.02 in 10.0 mi WNW 6.9 mph - N/A   Partly Cloudy
5:53 AM 70.0 °F - 66.0 °F 87% 30.02 in 10.0 mi NW 5.8 mph - N/A   Scattered Clouds
6:53 AM 70.0 °F - 64.9 °F 84% 30.03 in 10.0 mi WNW 4.6 mph - N/A   Mostly Cloudy
7:53 AM 71.1 °F - 64.0 °F 78% 30.05 in 10.0 mi NW 6.9 mph - N/A   Overcast
8:53 AM 72.0 °F - 60.1 °F 66% 30.08 in 10.0 mi NNW 10.4 mph - N/A   Overcast
9:53 AM 73.0 °F - 61.0 °F 66% 30.10 in 10.0 mi North 11.5 mph - N/A   Overcast
10:53 AM 75.9 °F - 60.1 °F 58% 30.12 in 10.0 mi North 13.8 mph - N/A   Mostly Cloudy
11:53 AM 78.1 °F - 57.9 °F 50% 30.13 in 10.0 mi North 13.8 mph - N/A   Mostly Cloudy
12:53 PM 79.0 °F - 55.9 °F 45% 30.13 in 10.0 mi NNW 9.2 mph - N/A   Mostly Cloudy
1:53 PM 81.0 °F 80.7 °F 55.0 °F 41% 30.11 in 10.0 mi NNW 6.9 mph - N/A   Mostly Cloudy
2:53 PM 82.9 °F 81.9 °F 54.0 °F 37% 30.10 in 10.0 mi North 11.5 mph - N/A   Scattered Clouds
4:53 PM 82.9 °F - 51.1 °F 33% 30.07 in 10.0 mi WNW 11.5 mph - N/A   Mostly Cloudy
5:53 PM 82.9 °F - 52.0 °F 34% 30.06 in 10.0 mi WNW 10.4 mph - N/A   Mostly Cloudy
6:53 PM 80.1 °F - 50.0 °F 35% 30.06 in 10.0 mi NNW 11.5 mph - N/A   Mostly Cloudy
7:53 PM 77.0 °F - 51.1 °F 40% 30.07 in 10.0 mi North 10.4 mph - N/A   Mostly Cloudy
8:14 PM 73.4 °F - 57.2 °F 57% 30.10 in 10.0 mi ENE 11.5 mph - N/A   Mostly Cloudy
8:53 PM 71.1 °F - 54.0 °F 55% 30.11 in 10.0 mi NE 11.5 mph - N/A   Mostly Cloudy
9:53 PM 69.1 °F - 55.0 °F 61% 30.13 in 10.0 mi ENE 4.6 mph - N/A   Mostly Cloudy
10:53 PM 68.0 °F - 55.0 °F 63% 30.14 in 10.0 mi NE 5.8 mph - N/A   Mostly Cloudy
11:53 PM 66.0 °F - 55.0 °F 68% 30.15 in 10.0 mi NNE 5.8 mph - N/A   Mostly Cloudy